Location: Marcé
(47.5801°N, 0.3280°W)
Time: 08:37:49
(UTC+01:00)

Explorer 7 - Pass Details

Date: 06 December 2021
Orbit: 483 x 674 km, 50.3° (Epoch: 24 January)

Event Time Altitude Azimuth Distance (km) Brightness Sun altitude
Rises 11:22:49 0° 290° (WNW) 2,666 9.9 17.0°
Reaches altitude 10° 11:25:09 10° 283° (WNW) 1,745 9.1 17.2°
Maximum altitude 11:28:53 42° 212° (SSW) 719 8.1 17.4°
Drops below altitude 10° 11:32:28 10° 141° (SE) 1,673 10.9 17.6°
Sets 11:34:40 0° 134° (SE) 2,540 11.3 17.7°
